Location: Stuttgart
(48.7824°N, 9.1964°E)
Time: 21:43:03
(UTC+01:00)

ISS - Pass Details

Date: 02 February 2019
Orbit: 403 x 411 km, 51.6° (Epoch: 21 February)

Event Time Altitude Azimuth Distance (km) Brightness Sun altitude
Rises 19:40:09 0° 289° (WNW) 2,340 1.3 -22.9°
Reaches altitude 10° 19:42:14 10° 291° (WNW) 1,479 0.0 -23.2°
Enters shadow 19:44:28 40° 296° (WNW) 627 -2.5 -23.6°
